STARLINK-4785 (53865 NORAD) Tracking and Keplerian Element Data

This shows tracking and keplerian element data for the satellite.

Feedback or suggestion? Click here.




ElementValue
Catalog53865
NameSTARLINK-4785
Epoch Orbit1053
Epoch Day325.33334491
Epoch Year2022
RAAN305.5493
Inclination53.2142
Eccentricity0.0004142
Argument of Perigee0.3768
Mean Anonmoly72.7078
Mean Motion15.73148883
Decay Rate0.00041322
L11 53865U 22114AZ 22325.33334491 .00041322 00000+0 29794-3 0 9996
L22 53865 53.2142 305.5493 0004142 0.3768 72.7078 15.73148883 10538



Live tracking and technical data element details for STARLINK-4785 (NORAD 53865). STARLINK-4785 can be tracked NOW for your location showing map with azimuth and elevation plus other details from your city location.







IsCatalogInMostPopularTable: catalog: 53865, numindb: -1

Insert: records affected: 1


GetName: 53865 STARLINK-4785

Hit Count: inserted at: Thu, 08 Dec 2022 09:45:16 GMT